[[{"header":{"parameterUnit":"m.s-1","parameterCategory":1,"la1":30.2991,"la2":30.254,"lo1":-89.0895,"lo2":-89.0444,"dy":0.0017,"dx":0.0017,"nx":28,"ny":28,"refTime":"2023-07-20T03:00:00:Z","depth":0,"parameterNumber":2,"parameterNumberName":"U-component_of_WINDS"},"data":[0,0,0,0,0,0,0,0,0,0,0,0,0,0,0,0,0,0,0,0,0,0,0,0,0,0,0,0,0,0,0,0,0,0,0,0,0,0,0,0,0,0,0,0,0,0,0,0,0,0,0,0,0,0,0,0,0,0,0.045,0.0451,0,0.0559,0.056,0.0561,0.061,0.061,0.061,0.061,0.072,0.0723,0.0726,0,0,0,0,0,0,0,0,0,0,0,0,0,0.0284,0.0287,0.045,0.0452,0.0453,0.0558,0.056,0.0561,0.061,0.061,0.061,0.061,0.0719,0.0723,0.0727,0,0,0,0,0,0,0,0,0,0,0,0,0,0.037,0.0287,0.045,0.049,0.0495,0.0558,0.056,0.0562,0.061,0.061,0.061,0.0609,0.0718,0.0723,0.0727,0.0759,0,0,0.0741,0.0743,0,0,0,0,0,0,0,0,0.0365,0.0377,0.0483,0.0487,0.0493,0.0571,0.0542,0.0628,0.061,0.0566,0.061,0.0609,0.0671,0.0679,0.07,0.0764,0.0769,0.0742,0.0744,0.0746,0.0748,0,0,0,0,0,0,0,0.0359,0.0372,0.0493,0.0484,0.049,0.0502,0.0514,0.0558,0.0618,0.057,0.0574,0.0586,0.0673,0.0695,0.0703,0.0771,0.0741,0.0746,0.0748,0.075,0.0866,0.0866,0,0,0,0,0,0,0.0347,0.0367,0.049,0.0496,0.0427,0.0505,0.0519,0.0546,0.0618,0.0629,0.0586,0.0588,0.0688,0.0697,0.0707,0.0749,0.0746,0.0751,0.0753,0.0866,0.0866,0.0867,0,0,0,0,0,0,0.0343,0.0358,0.0485,0.0433,0.045,0.0508,0.0538,0.0548,0.057,0.063,0.0641,0.0598,0.0688,0.07,0.0746,0.0753,0.0753,0.0757,0.0865,0.0866,0.0866,0.0833,0,0,0,0,0,0,0.0338,0.0356,0.0369,0.0433,0.0452,0.0522,0.0539,0.055,0.0578,0.0581,0.0644,0.0654,0.0689,0.0739,0.075,0.076,0.076,0.0865,0.0866,0.0866,0.0834,0.0833,0.0831,0,0,0,0,0,0.0332,0.0355,0.0369,0.0384,0.047,0.0523,0.0534,0.0574,0.0578,0.0592,0.063,0.0652,0.075,0.0743,0.0756,0.0767,0.0865,0.0865,0.0866,0.0834,0.0833,0.0831,0,0,0,0,0,0,0.0291,0.0365,0.0381,0.0426,0.0468,0.0531,0.0549,0.0571,0.0613,0.0614,0.0661,0.0675,0.0716,0.0746,0.0736,0.0802,0.0809,0.0813,0.0781,0.078,0.0778,0.077,0.0764,0,0,0,0,0,0.0287,0.0324,0.0386,0.042,0.044,0.0491,0.0515,0.0542,0.0587,0.0605,0.0647,0.069,0.0731,0.0757,0.0798,0.0838,0.0852,0.0852,0.0851,0.085,0.0852,0.0876,0.0876,0.0869,0.0869,0.0869,0,0,0.028,0.0324,0.0345,0.0412,0.0448,0.0485,0.0505,0.0544,0.0571,0.0611,0.0657,0.0688,0.074,0.0782,0.0803,0.0809,0.0857,0.0851,0.0849,0.0853,0.0876,0.0877,0.0878,0.0869,0.0869,0.0869,0,0,0.0285,0.0323,0.0354,0.039,0.0443,0.0477,0.0484,0.0545,0.0567,0.0613,0.0644,0.0677,0.0746,0.0781,0.0808,0.0825,0.0847,0.0837,0.0831,0.0853,0.0853,0.0854,0.086,0.0862,0.0839,0.0839,0.0839,0,0.0269,0.0326,0.0368,0.0405,0.0433,0.047,0.0503,0.0535,0.0599,0.0617,0.0623,0.071,0.0747,0.0798,0.0802,0.0823,0.0832,0.0831,0.085,0.0851,0.0853,0.0859,0.0861,0.0838,0.0838,0.0838,0.0838,0,0.0304,0.0343,0.0362,0.0423,0.0453,0.0487,0.0534,0.056,0.0583,0.0616,0.0662,0.0707,0.0758,0.0772,0.0796,0.0827,0.0828,0.0841,0.085,0.0851,0.0858,0.0861,0.0836,0.0836,0.0837,0.0837,0,0,0.0287,0.037,0.0376,0.0404,0.0466,0.0497,0.0532,0.0581,0.0603,0.0645,0.0676,0.0733,0.0745,0.0775,0.0803,0.0822,0.0833,0.0833,0.0835,0.0831,0.0869,0.0859,0.0862,0.0847,0.0847,0.0848,0.0865,0,0.0301,0.0367,0.0405,0.0454,0.0491,0.0526,0.0557,0.0597,0.0629,0.0664,0.0698,0.0738,0.0751,0.0769,0.079,0.0827,0.0841,0.0826,0.0876,0.0877,0.0862,0.0865,0.0855,0.0869,0.0868,0.0868,0.0869,0,0.0326,0.0368,0.0422,0.0478,0.0495,0.0522,0.057,0.0603,0.065,0.0671,0.0704,0.0732,0.077,0.0775,0.0828,0.0817,0.0839,0.086,0.0862,0.0869,0.0873,0.0872,0.0875,0.0877,0.0873,0.0873,0.0872,0,0.0309,0.0379,0.042,0.0442,0.051,0.0528,0.0556,0.0603,0.063,0.0671,0.0689,0.0734,0.0759,0.0794,0.0833,0.0833,0.0882,0.089,0.09,0.0899,0.091,0.0909,0.0916,0.0923,0.0923,0.0923,0.0923,0,0.0321,0.0352,0.0413,0.0438,0.0474,0.0516,0.055,0.0582,0.0623,0.0654,0.0687,0.0716,0.0766,0.08,0.0831,0.087,0.0881,0.0899,0.0907,0.0896,0.0894,0.0912,0.0912,0.0924,0.0923,0.0923,0.0923,0,0.0308,0.035,0.0397,0.0456,0.0472,0.0496,0.0547,0.0572,0.0604,0.0644,0.0655,0.0706,0.0749,0.0791,0.0848,0.0868,0.0907,0.0918,0.0892,0.0896,0.0904,0.0903,0.0924,0.0929,0.0932,0.0932,0.0931,0,0.0313,0.0338,0.04,0.0424,0.0452,0.0489,0.0517,0.0559,0.0587,0.0641,0.066,0.0705,0.0743,0.0809,0.0851,0.0895,0.0907,0.0911,0.0913,0.0902,0.0907,0.0905,0.0908,0.091,0.091,0.0909,0.0909,0,0.0317,0.0337,0.0375,0.0421,0.0453,0.0491,0.053,0.0547,0.0597,0.0626,0.067,0.07,0.0758,0.0802,0.085,0.088,0.0903,0.0908,0.0913,0.0903,0.0887,0.0895,0.0889,0.0907,0.0908,0.0908,0.0908,0.0908,0.0314,0.0338,0.0385,0.0427,0.046,0.0496,0.0523,0.0558,0.0596,0.0646,0.0669,0.0713,0.0758,0.0826,0.0854,0.0889,0.0895,0.0902,0.0904,0.0905,0.0903,0.088,0.0898,0.0898,0.0898,0.0899,0.0899,0,0.032,0.0352,0.039,0.0444,0.0476,0.0495,0.0539,0.0565,0.0603,0.0644,0.068,0.073,0.0773,0.0818,0.0863,0.0882,0.0894,0.0893,0.0892,0.0898,0.0895,0.0886,0.0883,0.0883,0.0883,0.0883,0.0883,0.0883,0.0327,0.0368,0.0393,0.045,0.0482,0.0526,0.0549,0.0582,0.0615,0.0669,0.0705,0.0733,0.0775,0.0824,0.0863,0.0876,0.0891,0.0887,0.0902,0.0898,0.0899,0.09,0.0892,0.0889,0.0889,0.0902,0.0902,0.0903]},{"header":{"parameterUnit":"m.s-1","parameterCategory":1,"la1":30.2991,"la2":30.254,"lo1":-89.0895,"lo2":-89.0444,"dy":0.0017,"dx":0.0017,"nx":28,"ny":28,"refTime":"2023-07-20T03:00:00:Z","depth":0,"parameterNumber":3,"parameterNumberName":"V-component_of_WINDS"},"data":[0,0,0,0,0,0,0,0,0,0,0,0,0,0,0,0,0,0,0,0,0,0,0,0,0,0,0,0,0,0,0,0,0,0,0,0,0,0,0,0,0,0,0,0,0,0,0,0,0,0,0,0,0,0,0,0,0,0,5.2971,5.297,0,5.2897,5.2896,5.2895,5.2805,5.2804,5.2802,5.2801,5.2721,5.272,5.2719,0,0,0,0,0,0,0,0,0,0,0,0,0,5.3033,5.3032,5.2971,5.297,5.2969,5.2897,5.2896,5.2895,5.2805,5.2803,5.2802,5.28,5.2721,5.272,5.2719,0,0,0,0,0,0,0,0,0,0,0,0,0,5.2987,5.3032,5.2971,5.2916,5.291,5.2897,5.2896,5.2894,5.2806,5.2803,5.2801,5.2799,5.2721,5.272,5.2719,5.2753,0,0,5.2715,5.2715,0,0,0,0,0,0,0,0,5.299,5.2985,5.2925,5.292,5.2913,5.2858,5.2888,5.2847,5.2806,5.2845,5.2801,5.2798,5.2768,5.2763,5.2753,5.2749,5.2746,5.2715,5.2714,5.2714,5.2713,0,0,0,0,0,0,0,5.2993,5.2987,5.2941,5.2924,5.2917,5.2894,5.2885,5.288,5.2819,5.2842,5.2835,5.2828,5.2764,5.2755,5.2751,5.2745,5.2715,5.2714,5.2713,5.2713,5.2764,5.2766,0,0,0,0,0,0,5.3005,5.2991,5.2944,5.2939,5.2947,5.2894,5.2885,5.2878,5.2819,5.2808,5.2829,5.2824,5.2758,5.2752,5.2748,5.2783,5.2714,5.2713,5.2712,5.2762,5.2764,5.2766,0,0,0,0,0,0,5.3007,5.3002,5.2947,5.2963,5.2954,5.2896,5.2889,5.2877,5.2868,5.281,5.2798,5.2831,5.2756,5.2749,5.2752,5.2779,5.2712,5.2711,5.2759,5.2762,5.2765,5.2854,0,0,0,0,0,0,5.3009,5.3003,5.3016,5.2964,5.2954,5.2954,5.289,5.2877,5.2866,5.2858,5.2808,5.2798,5.2754,5.2755,5.2751,5.2776,5.271,5.2756,5.2761,5.2764,5.2849,5.286,5.287,0,0,0,0,0,5.3011,5.3043,5.3017,5.3012,5.2969,5.2956,5.295,5.29,5.2869,5.2881,5.2843,5.2799,5.2777,5.2756,5.2751,5.2776,5.2755,5.2759,5.2764,5.2844,5.2858,5.2869,0,0,0,0,0,0,5.3098,5.3035,5.3005,5.3022,5.2995,5.2941,5.2955,5.2916,5.2897,5.289,5.2827,5.2817,5.2827,5.2802,5.278,5.2805,5.2759,5.2763,5.2821,5.2834,5.2845,5.285,5.2709,0,0,0,0,0,5.3119,5.3115,5.306,5.3079,5.3068,5.3014,5.3006,5.297,5.2939,5.2927,5.289,5.2861,5.2847,5.2839,5.2823,5.2845,5.2832,5.2859,5.287,5.2879,5.2883,5.2891,5.2903,5.2782,5.2782,5.2782,0,0,5.3163,5.3128,5.3129,5.3096,5.3071,5.3067,5.3005,5.3003,5.2999,5.2926,5.2927,5.2899,5.2862,5.2875,5.2878,5.2854,5.2913,5.2885,5.2892,5.2891,5.2897,5.2909,5.2919,5.2785,5.2785,5.2784,0,0,5.324,5.3213,5.3227,5.3203,5.3167,5.3131,5.3134,5.3086,5.3065,5.3065,5.301,5.3004,5.2982,5.2958,5.2943,5.3011,5.2969,5.3008,5.3063,5.3072,5.3081,5.3089,5.3113,5.3122,5.3012,5.3012,5.3012,0,5.3298,5.3291,5.3238,5.324,5.3227,5.3162,5.3175,5.3154,5.3114,5.3106,5.3079,5.305,5.3021,5.3027,5.3044,5.3034,5.3035,5.3013,5.3084,5.3092,5.3099,5.3121,5.313,5.3017,5.3016,5.3016,5.3016,0,5.3364,5.3359,5.3374,5.3339,5.3327,5.3334,5.3282,5.3277,5.3242,5.3208,5.3209,5.3172,5.3147,5.3146,5.3111,5.3147,5.3132,5.3096,5.3048,5.3116,5.3135,5.3143,5.3024,5.3022,5.3021,5.302,0,0,5.3492,5.3428,5.3434,5.3417,5.3373,5.3368,5.3372,5.3349,5.3345,5.332,5.3321,5.3304,5.327,5.3253,5.3215,5.3223,5.3279,5.3185,5.3184,5.3204,5.3315,5.3342,5.3353,5.3252,5.3253,5.3254,5.3318,0,5.3561,5.3565,5.3518,5.3535,5.353,5.3469,5.3472,5.3444,5.3413,5.3403,5.3368,5.3357,5.3314,5.3303,5.3309,5.3271,5.33,5.3266,5.3251,5.3251,5.3261,5.3363,5.3392,5.3453,5.3325,5.3326,5.3327,0,5.364,5.3621,5.3638,5.3592,5.3588,5.3592,5.3567,5.3559,5.3526,5.3503,5.3485,5.3442,5.3441,5.3397,5.3395,5.3372,5.3363,5.3344,5.3345,5.3341,5.3293,5.3361,5.3472,5.3481,5.3339,5.3338,5.3337,0,5.3732,5.371,5.3717,5.3704,5.3651,5.3655,5.3633,5.3599,5.3588,5.3566,5.3558,5.3536,5.3524,5.3507,5.3459,5.3431,5.3462,5.3413,5.3441,5.3443,5.345,5.345,5.356,5.3445,5.3445,5.3445,5.3445,0,5.3813,5.3825,5.3757,5.3762,5.3773,5.3719,5.3732,5.3703,5.3673,5.367,5.3615,5.3613,5.355,5.354,5.3503,5.3506,5.3501,5.3481,5.3471,5.3486,5.3488,5.3478,5.3472,5.3448,5.3447,5.3447,5.3446,0,5.3917,5.3872,5.3876,5.3826,5.3814,5.3824,5.3781,5.3782,5.3748,5.3745,5.3741,5.3687,5.3673,5.3623,5.3597,5.3571,5.3586,5.3567,5.3598,5.3591,5.3621,5.3619,5.3728,5.374,5.3619,5.362,5.3621,0,5.3971,5.3979,5.3931,5.3926,5.3906,5.3898,5.3887,5.3834,5.3825,5.3788,5.3793,5.3775,5.3758,5.3738,5.3696,5.3675,5.3654,5.3694,5.365,5.3665,5.3653,5.3653,5.3653,5.3703,5.3704,5.3706,5.3707,0,5.4072,5.4049,5.4036,5.4016,5.4005,5.3986,5.3963,5.3962,5.3902,5.3894,5.388,5.3867,5.384,5.3822,5.3795,5.377,5.3729,5.3721,5.3726,5.3741,5.3759,5.3749,5.3623,5.3719,5.3717,5.3717,5.3716,5.3715,5.4152,5.4156,5.4123,5.411,5.4088,5.4069,5.4068,5.4034,5.4021,5.3997,5.3966,5.3955,5.3921,5.388,5.3859,5.3849,5.3826,5.3833,5.3835,5.3838,5.3845,5.3761,5.3843,5.3843,5.3843,5.3842,5.3842,0,5.4249,5.4225,5.4214,5.4185,5.4175,5.4138,5.4111,5.4105,5.4097,5.407,5.4054,5.4037,5.402,5.3977,5.3955,5.3955,5.3935,5.3951,5.395,5.3945,5.3867,5.3864,5.3967,5.3967,5.3967,5.3967,5.3967,5.3967,5.4299,5.4304,5.4278,5.4272,5.4247,5.4237,5.4225,5.4206,5.4184,5.4168,5.4154,5.4127,5.4092,5.4068,5.405,5.4037,5.4031,5.4053,5.4035,5.3962,5.395,5.3939,5.3936,5.4053,5.4053,5.4113,5.4114,5.4114]}]]